Simultaneous Nadir Overpasses (SNOs) Predictions

Prediction of SNOs between GOES-14 and NOAA-20 Satellite Orbit:

Table of predicted SNOs for the next 14.0 days since TLE Epoch: 11/16/2024
Index Date Time (GOES-14) GOES-14 Lat,Lon NOAA-20 Lat,Lon Distance(km) Time Diff (sec)
1 11/16/2024 20:53:35 0.02,-108.55 -0.76,-112.06 400.53 80
2 11/17/2024 20:32:09 0.03,-108.55 0.27,-107.53 115.96 80
3 11/19/2024 08:56:35 -0.01,-108.61 0.92,-112.79 476.59 80
4 11/20/2024 08:35:09 -0.02,-108.60 -0.12,-108.26 39.65 80
5 11/22/2024 20:40:57 0.02,-108.54 -0.10,-109.01 54.55 80
6 11/23/2024 20:19:32 0.03,-108.54 0.94,-104.48 462.35 80
7 11/25/2024 08:43:57 -0.01,-108.61 0.22,-109.74 129.05 80
8 11/26/2024 08:22:30 -0.02,-108.61 -0.77,-105.20 387.64 80
9 11/27/2024 20:47:05 -0.01,-108.54 -0.42,-110.50 222.82 80
10 11/28/2024 20:25:38 0.00,-108.54 0.58,-105.96 294.12 80
